Location: West Chester
(39.9610°N, 75.6060°W)
Time: 19:50:44
(UTC-04:00)

ARIANE 6 FM1 Upper Stage - Pass Details

Date: 23 September 2024
Orbit: 563 x 594 km, 62.0° (Epoch: 11 October)

Event Time Altitude Azimuth Distance (km) Brightness Sun altitude
Rises 19:11:26 0° 197° (SSW) 2,758 6.4 -3.6°
Reaches altitude 10° 19:13:44 10° 190° (S) 1,870 5.4 -4.1°
Maximum altitude 19:17:42 41° 120° (ESE) 845 3.2 -4.8°
Drops below altitude 10° 19:21:44 10° 50° (NE) 1,903 4.9 -5.6°
Sets 19:24:05 0° 43° (NE) 2,813 5.9 -6.0°
